Weather Roundup
Issued by NWS Corpus Christi, TX

Home | Current Version | Previous Version | Text Only | Print | Product List | Glossary On
Versions: 1 2 3 4 5 6 7 8 9 10 11 12 13 14 15 16 17 18 19 20 21 22 23 24 25 26 27 28 29 30 31 32 33 34 35 36 37 38 39 40 41 42 43 44 45 46 47 48 49 50
000
ASUS44 KCRP 180510
HRRCRP

SOUTH TEXAS REGIONAL WEATHER ROUNDUP
NATIONAL WEATHER SERVICE CORPUS CHRISTI TX
1100 PM CST FRI NOV 17 2017


TXZ229>244-180600-
...CORPUS CHRISTI AREA OBSERVATIONS...

CITY           SKY/WX    TMP DP  RH WIND       PRES   REMARKS
CORPUS CHRISTI CLEAR     72  70  93 S12       29.90F
NAS CORPUS CHR CLEAR     76  72  87 S15       29.90F
ROCKPORT       CLEAR     74  71  91 S9G18     29.89F
KINGSVILLE ARP FAIR      73  72  95 S9        29.90F
KINGSVILLE NAS CLEAR     73  71  93 S15       29.89F
ALICE          CLEAR     72  68  87 S12       29.88F
$$

...VICTORIA AREA OBSERVATIONS...

CITY           SKY/WX    TMP DP  RH WIND       PRES   REMARKS
PORT LAVACA    NOT AVBL
VICTORIA       CLEAR     71  69  93 S12       29.88F
BEEVILLE       FAIR     N/A N/A N/A S16       29.88F
PLEASANTON     CLEAR     71  68  92 S8        29.87S
SAN ANTONIO    MOCLDY    72  67  84 S9        29.90S
$$

...LAREDO AREA OBSERVATIONS...

CITY           SKY/WX    TMP DP  RH WIND       PRES   REMARKS
LAREDO         CLEAR     74  68  81 SE20      29.86F
COTULLA        CLEAR     74  65  73 S8        29.85F
DEL RIO        CLEAR     70  65  84 E8        29.84F
MCALLEN        CLEAR     74  70  87 SE10      29.92F
HEBBRONVILLE   CLEAR     70  66  88 S10       29.90F
$$

...OTHER TEXAS OBSERVATIONS...

CITY           SKY/WX    TMP DP  RH WIND       PRES   REMARKS
BROWNSVILLE    CLEAR     72  69  90 S8        29.93F
HOUSTON        PTCLDY    73  69  87 S10       29.89F
COL. STATION   CLEAR     71  68  90 S9        29.85F
AUSTIN         MOCLDY    71  69  93 S15       29.85S
WACO           CLOUDY    73  65  75 S15       29.79F
FORT WORTH     CLOUDY    76  64  66 S25       29.69F
WICHITA FALLS  CLEAR     72  57  59 SW18G25   29.63S
LUBBOCK        CLOUDY    68  25  19 W20       29.77F
EL PASO        MOCLDY    71  20  14 VRB5      30.00R
$$

...MARINE OBSERVATIONS...

STATION/POSITION TIME  SKY/WX   TEMP    WIND        PRES    VSBY  WAVE   SWELL
                                AIR SEA DIR/SP/G                  HT/PER HT/PER
                 (UTC)          (F)     (DEG/KT/KT) (MB)    (MI)  (FT/S) (FT/S)
PORT ARANSAS     0500            76 76  160/ 18/ 20 1012.3F
BUOY 90 E PORT A 0350            78 79  170/ 19/ 21 1013.8          4/ 5
BUOY 200 E PT IS 0350            78 80  150/ 16/ 17 1015.7          2/ 6   2/12
BUOY 15 E GALVES 0350            75 72  200/ 14/ 16 1013.6          3/ 5
$$




USA.gov is the U.S. government's official web portal to all federal, state and local government web resources and services.